Time,TemperatureF,DewpointF,PressureIn,WindDirection,WindDirectionDegrees,WindSpeedMPH,WindSpeedGustMPH,Humidity,HourlyPrecipIn,Conditions,Clouds,dailyrainin,SoftwareType,DateUTC
2013-01-13 00:02:00,3.0,-2.0,30.26,WSW,255,3.0,10.0,78,0.00,,,0.00,,2013-01-13 06:02:00,
2013-01-13 00:12:00,3.0,-2.0,30.26,WSW,255,3.0,10.0,78,0.00,,,0.00,,2013-01-13 06:12:00,
2013-01-13 00:22:00,2.0,-3.0,30.27,WSW,242,3.0,7.0,78,0.00,,,0.00,,2013-01-13 06:22:00,
2013-01-13 00:32:00,2.0,-3.0,30.27,WSW,255,4.0,8.0,78,0.00,,,0.00,,2013-01-13 06:32:00,
2013-01-13 00:42:00,2.0,-3.0,30.27,WSW,255,4.0,8.0,78,0.00,,,0.00,,2013-01-13 06:42:00,
2013-01-13 00:52:00,2.0,-3.0,30.27,WSW,252,5.0,10.0,78,0.00,,,0.00,,2013-01-13 06:52:00,
2013-01-13 01:02:00,2.0,-3.0,30.27,WSW,252,4.0,9.0,78,0.00,,,0.00,,2013-01-13 07:02:00,
2013-01-13 01:12:00,2.0,-3.0,30.27,WSW,252,4.0,9.0,78,0.00,,,0.00,,2013-01-13 07:12:00,
2013-01-13 01:22:00,2.0,-3.0,30.27,WSW,244,4.0,8.0,78,0.00,,,0.00,,2013-01-13 07:22:00,
2013-01-13 01:32:00,2.0,-3.0,30.27,SW,236,4.0,8.0,78,0.00,,,0.00,,2013-01-13 07:32:00,
2013-01-13 01:42:00,2.0,-3.0,30.27,SW,236,4.0,8.0,78,0.00,,,0.00,,2013-01-13 07:42:00,
2013-01-13 01:52:00,1.0,-4.0,30.27,WSW,250,2.0,8.0,78,0.00,,,0.00,,2013-01-13 07:52:00,
2013-01-13 02:02:00,1.0,-4.0,30.27,SW,236,5.0,9.0,78,0.00,,,0.00,,2013-01-13 08:02:00,
2013-01-13 02:12:00,1.0,-4.0,30.27,SW,236,5.0,9.0,78,0.00,,,0.00,,2013-01-13 08:12:00,
2013-01-13 02:22:00,2.0,-3.0,30.27,West,260,4.0,9.0,78,0.00,,,0.00,,2013-01-13 08:22:00,
2013-01-13 02:32:00,1.0,-4.0,30.28,WSW,239,4.0,9.0,78,0.00,,,0.00,,2013-01-13 08:32:00,
2013-01-13 02:42:00,1.0,-4.0,30.28,WSW,239,4.0,9.0,78,0.00,,,0.00,,2013-01-13 08:42:00,
2013-01-13 02:53:00,1.0,-4.0,30.28,SW,236,2.0,7.0,78,0.00,,,0.00,,2013-01-13 08:53:00,
2013-01-13 03:02:00,1.0,-4.0,30.29,WSW,239,2.0,6.0,78,0.00,,,0.00,,2013-01-13 09:02:00,
2013-01-13 03:12:00,1.0,-4.0,30.29,WSW,239,2.0,6.0,78,0.00,,,0.00,,2013-01-13 09:12:00,
2013-01-13 03:22:00,1.0,-4.0,30.29,WSW,239,2.0,6.0,78,0.00,,,0.00,,2013-01-13 09:22:00,
2013-01-13 03:32:00,1.0,-4.0,30.29,SSW,211,2.0,7.0,79,0.00,,,0.00,,2013-01-13 09:32:00,
2013-01-13 03:42:00,1.0,-4.0,30.29,SSW,211,2.0,7.0,79,0.00,,,0.00,,2013-01-13 09:42:00,
2013-01-13 03:52:00,1.0,-4.0,30.29,WSW,241,0.0,6.0,78,0.00,,,0.00,,2013-01-13 09:52:00,
2013-01-13 04:02:00,0.0,-5.0,30.29,WSW,254,0.0,6.0,78,0.00,,,0.00,,2013-01-13 10:02:00,
2013-01-13 04:12:00,0.0,-5.0,30.29,WSW,254,0.0,6.0,78,0.00,,,0.00,,2013-01-13 10:12:00,
2013-01-13 04:22:00,0.0,-5.0,30.28,West,261,0.0,4.0,78,0.00,,,0.00,,2013-01-13 10:22:00,
2013-01-13 04:32:00,0.0,-5.0,30.28,West,271,2.0,6.0,78,0.00,,,0.00,,2013-01-13 10:32:00,
2013-01-13 04:42:00,0.0,-5.0,30.28,West,271,2.0,6.0,78,0.00,,,0.00,,2013-01-13 10:42:00,
2013-01-13 04:52:00,0.0,-5.0,30.28,WSW,238,4.0,8.0,78,0.00,,,0.00,,2013-01-13 10:52:00,
2013-01-13 05:02:00,0.0,-5.0,30.28,WSW,248,3.0,7.0,78,0.00,,,0.00,,2013-01-13 11:02:00,
2013-01-13 05:12:00,0.0,-5.0,30.28,WSW,248,3.0,7.0,78,0.00,,,0.00,,2013-01-13 11:12:00,
2013-01-13 05:22:00,0.0,-5.0,30.27,WSW,238,3.0,7.0,78,0.00,,,0.00,,2013-01-13 11:22:00,
2013-01-13 05:32:00,0.0,-5.0,30.27,WSW,257,4.0,8.0,78,0.00,,,0.00,,2013-01-13 11:32:00,
2013-01-13 05:42:00,0.0,-5.0,30.27,WSW,257,4.0,8.0,78,0.00,,,0.00,,2013-01-13 11:42:00,
2013-01-13 05:52:00,0.0,-5.0,30.27,WSW,257,4.0,8.0,78,0.00,,,0.00,,2013-01-13 11:52:00,
2013-01-13 06:03:00,0.0,-5.0,30.27,WSW,248,3.0,7.0,79,0.00,,,0.00,,2013-01-13 12:03:00,
2013-01-13 06:12:00,0.0,-5.0,30.27,WSW,248,3.0,7.0,79,0.00,,,0.00,,2013-01-13 12:12:00,
2013-01-13 06:22:00,0.0,-5.0,30.27,WSW,248,3.0,7.0,79,0.00,,,0.00,,2013-01-13 12:22:00,
2013-01-13 06:32:00,0.0,-5.0,30.28,WSW,252,0.0,5.0,79,0.00,,,0.00,,2013-01-13 12:32:00,
2013-01-13 06:42:00,0.0,-5.0,30.28,WSW,252,0.0,5.0,79,0.00,,,0.00,,2013-01-13 12:42:00,
2013-01-13 06:53:00,0.0,-5.0,30.28,WSW,254,0.0,2.0,79,0.00,,,0.00,,2013-01-13 12:53:00,
2013-01-13 07:02:00,0.0,-5.0,30.28,WSW,254,0.0,2.0,79,0.00,,,0.00,,2013-01-13 13:02:00,
2013-01-13 07:12:00,0.0,-5.0,30.28,WSW,254,0.0,2.0,79,0.00,,,0.00,,2013-01-13 13:12:00,
2013-01-13 07:22:00,-1.0,-6.0,30.29,WSW,242,1.0,4.0,79,0.00,,,0.00,,2013-01-13 13:22:00,
2013-01-13 07:33:00,-1.0,-6.0,30.31,WSW,238,2.0,5.0,79,0.00,,,0.00,,2013-01-13 13:33:00,
2013-01-13 07:42:00,-1.0,-6.0,30.31,WSW,238,2.0,5.0,79,0.00,,,0.00,,2013-01-13 13:42:00,
2013-01-13 07:53:00,-1.0,-6.0,30.32,WSW,238,0.0,4.0,79,0.00,,,0.00,,2013-01-13 13:53:00,
2013-01-13 08:03:00,-1.0,-6.0,30.32,WSW,240,1.0,4.0,79,0.00,,,0.00,,2013-01-13 14:03:00,
2013-01-13 08:12:00,-1.0,-6.0,30.32,WSW,240,1.0,4.0,79,0.00,,,0.00,,2013-01-13 14:12:00,
2013-01-13 08:22:00,-1.0,-6.0,30.33,West,265,0.0,2.0,80,0.00,,,0.00,,2013-01-13 14:22:00,
2013-01-13 08:33:00,-1.0,-6.0,30.34,West,263,0.0,0.0,79,0.00,,,0.00,,2013-01-13 14:33:00,
2013-01-13 08:43:00,-1.0,-6.0,30.34,West,263,0.0,0.0,79,0.00,,,0.00,,2013-01-13 14:43:00,
2013-01-13 08:52:00,-2.0,-7.0,30.34,West,263,0.0,2.0,79,0.00,,,0.00,,2013-01-13 14:52:00,
2013-01-13 09:03:00,-2.0,-7.0,30.35,West,265,0.0,0.0,79,0.00,,,0.00,,2013-01-13 15:03:00,
2013-01-13 09:12:00,-2.0,-7.0,30.35,West,265,0.0,0.0,79,0.00,,,0.00,,2013-01-13 15:12:00,
2013-01-13 09:23:00,-1.0,-5.0,30.35,West,281,0.0,1.0,81,0.00,,,0.00,,2013-01-13 15:23:00,
2013-01-13 09:33:00,0.0,-4.0,30.36,WNW,300,0.0,1.0,81,0.00,,,0.00,,2013-01-13 15:33:00,
2013-01-13 09:43:00,0.0,-4.0,30.36,WNW,300,0.0,1.0,81,0.00,,,0.00,,2013-01-13 15:43:00,
2013-01-13 09:52:00,2.0,-3.0,30.37,WSW,245,1.0,7.0,80,0.00,,,0.00,,2013-01-13 15:52:00,
2013-01-13 10:03:00,4.0,-1.0,30.36,WSW,254,3.0,8.0,78,0.00,,,0.00,,2013-01-13 16:03:00,
2013-01-13 10:12:00,4.0,-1.0,30.36,WSW,254,3.0,8.0,78,0.00,,,0.00,,2013-01-13 16:12:00,
2013-01-13 10:23:00,5.0,-1.0,30.37,WSW,246,3.0,9.0,77,0.00,,,0.00,,2013-01-13 16:23:00,
2013-01-13 10:33:00,6.0,0.0,30.37,WSW,249,1.0,8.0,76,0.00,,,0.00,,2013-01-13 16:33:00,
2013-01-13 10:43:00,6.0,0.0,30.37,WSW,249,1.0,8.0,76,0.00,,,0.00,,2013-01-13 16:43:00,
2013-01-13 10:52:00,7.0,1.0,30.37,WSW,242,4.0,8.0,76,0.00,,,0.00,,2013-01-13 16:52:00,
2013-01-13 11:03:00,8.0,2.0,30.37,WSW,249,5.0,9.0,76,0.00,,,0.00,,2013-01-13 17:03:00,
2013-01-13 11:12:00,8.0,2.0,30.37,WSW,249,5.0,9.0,76,0.00,,,0.00,,2013-01-13 17:12:00,
2013-01-13 11:22:00,9.0,3.0,30.37,WSW,246,2.0,9.0,75,0.00,,,0.00,,2013-01-13 17:22:00,
2013-01-13 11:33:00,10.0,3.0,30.37,WSW,246,1.0,9.0,74,0.00,,,0.00,,2013-01-13 17:33:00,
2013-01-13 11:42:00,10.0,3.0,30.37,WSW,246,1.0,9.0,74,0.00,,,0.00,,2013-01-13 17:42:00,
2013-01-13 11:53:00,11.0,4.0,30.36,West,265,5.0,12.0,73,0.00,,,0.00,,2013-01-13 17:53:00,
2013-01-13 12:03:00,11.0,4.0,30.36,WSW,254,4.0,7.0,72,0.00,,,0.00,,2013-01-13 18:03:00,
2013-01-13 12:12:00,11.0,4.0,30.36,WSW,254,4.0,7.0,72,0.00,,,0.00,,2013-01-13 18:12:00,
2013-01-13 12:23:00,12.0,5.0,30.35,WSW,238,2.0,9.0,72,0.00,,,0.00,,2013-01-13 18:23:00,
2013-01-13 12:33:00,13.0,5.0,30.35,West,271,2.0,8.0,71,0.00,,,0.00,,2013-01-13 18:33:00,
2013-01-13 12:43:00,13.0,5.0,30.35,West,271,2.0,8.0,71,0.00,,,0.00,,2013-01-13 18:43:00,
2013-01-13 12:53:00,14.0,6.0,30.34,WSW,238,4.0,10.0,70,0.00,,,0.00,,2013-01-13 18:53:00,
2013-01-13 13:03:00,15.0,7.0,30.33,WSW,241,1.0,8.0,69,0.00,,,0.00,,2013-01-13 19:03:00,
2013-01-13 13:12:00,15.0,7.0,30.33,WSW,241,1.0,8.0,69,0.00,,,0.00,,2013-01-13 19:12:00,
2013-01-13 13:22:00,15.0,7.0,30.32,SW,225,5.0,10.0,69,0.00,,,0.00,,2013-01-13 19:22:00,
2013-01-13 13:33:00,16.0,7.0,30.32,WSW,247,6.0,9.0,67,0.00,,,0.00,,2013-01-13 19:33:00,
2013-01-13 13:43:00,16.0,7.0,30.32,WSW,247,6.0,9.0,67,0.00,,,0.00,,2013-01-13 19:43:00,
2013-01-13 13:52:00,17.0,7.0,30.32,WSW,251,6.0,12.0,65,0.00,,,0.00,,2013-01-13 19:52:00,
2013-01-13 14:03:00,16.0,6.0,30.32,WSW,242,3.0,7.0,63,0.00,,,0.00,,2013-01-13 20:03:00,
2013-01-13 14:12:00,16.0,6.0,30.32,WSW,242,3.0,7.0,63,0.00,,,0.00,,2013-01-13 20:12:00,
2013-01-13 14:22:00,17.0,6.0,30.32,WSW,247,4.0,9.0,62,0.00,,,0.00,,2013-01-13 20:22:00,
2013-01-13 14:33:00,17.0,6.0,30.32,WSW,250,0.0,6.0,61,0.00,,,0.00,,2013-01-13 20:33:00,
2013-01-13 14:43:00,17.0,6.0,30.32,WSW,250,0.0,6.0,61,0.00,,,0.00,,2013-01-13 20:43:00,
2013-01-13 14:53:00,17.0,6.0,30.33,WSW,244,2.0,7.0,61,0.00,,,0.00,,2013-01-13 20:53:00,
2013-01-13 15:03:00,18.0,7.0,30.33,SW,225,1.0,5.0,61,0.00,,,0.00,,2013-01-13 21:03:00,
2013-01-13 15:12:00,18.0,7.0,30.33,SW,225,1.0,5.0,61,0.00,,,0.00,,2013-01-13 21:12:00,
2013-01-13 15:23:00,18.0,6.0,30.33,WSW,252,2.0,6.0,59,0.00,,,0.00,,2013-01-13 21:23:00,
2013-01-13 15:33:00,18.0,7.0,30.34,SW,233,3.0,7.0,61,0.00,,,0.00,,2013-01-13 21:33:00,
2013-01-13 15:43:00,18.0,7.0,30.34,SW,233,3.0,7.0,61,0.00,,,0.00,,2013-01-13 21:43:00,
2013-01-13 15:52:00,18.0,6.0,30.34,WSW,240,1.0,6.0,59,0.00,,,0.00,,2013-01-13 21:52:00,
2013-01-13 16:02:00,18.0,6.0,30.33,WSW,248,0.0,6.0,59,0.00,,,0.00,,2013-01-13 22:02:00,
2013-01-13 16:12:00,18.0,6.0,30.33,WSW,248,0.0,6.0,59,0.00,,,0.00,,2013-01-13 22:12:00,
2013-01-13 16:22:00,18.0,6.0,30.34,WSW,246,2.0,6.0,59,0.00,,,0.00,,2013-01-13 22:22:00,
2013-01-13 16:33:00,19.0,7.0,30.34,SW,230,3.0,7.0,58,0.00,,,0.00,,2013-01-13 22:33:00,
2013-01-13 16:43:00,19.0,7.0,30.34,SW,230,3.0,7.0,58,0.00,,,0.00,,2013-01-13 22:43:00,
2013-01-13 16:52:00,19.0,6.0,30.35,WSW,243,5.0,10.0,56,0.00,,,0.00,,2013-01-13 22:52:00,
2013-01-13 17:02:00,19.0,6.0,30.35,WSW,252,1.0,8.0,57,0.00,,,0.00,,2013-01-13 23:02:00,
2013-01-13 17:12:00,19.0,6.0,30.35,WSW,252,1.0,8.0,57,0.00,,,0.00,,2013-01-13 23:12:00,
2013-01-13 17:22:00,18.0,5.0,30.35,WSW,250,1.0,10.0,56,0.00,,,0.00,,2013-01-13 23:22:00,
2013-01-13 17:33:00,18.0,6.0,30.35,West,260,0.0,4.0,58,0.00,,,0.00,,2013-01-13 23:33:00,
2013-01-13 17:42:00,18.0,6.0,30.35,West,260,0.0,4.0,58,0.00,,,0.00,,2013-01-13 23:42:00,
2013-01-13 17:52:00,17.0,5.0,30.35,WSW,242,0.0,4.0,59,0.00,,,0.00,,2013-01-13 23:52:00,
2013-01-13 18:03:00,16.0,5.0,30.36,West,264,0.0,3.0,61,0.00,,,0.00,,2013-01-14 00:03:00,
2013-01-13 18:12:00,16.0,5.0,30.36,West,264,0.0,3.0,61,0.00,,,0.00,,2013-01-14 00:12:00,
2013-01-13 18:22:00,15.0,4.0,30.36,WSW,248,0.0,1.0,62,0.00,,,0.00,,2013-01-14 00:22:00,
2013-01-13 18:33:00,14.0,4.0,30.36,WSW,248,0.0,0.0,64,0.00,,,0.00,,2013-01-14 00:33:00,
2013-01-13 18:43:00,14.0,4.0,30.36,WSW,248,0.0,0.0,64,0.00,,,0.00,,2013-01-14 00:43:00,
2013-01-13 18:52:00,13.0,3.0,30.36,WNW,287,0.0,0.0,65,0.00,,,0.00,,2013-01-14 00:52:00,
2013-01-13 19:03:00,11.0,2.0,30.36,WNW,287,0.0,0.0,67,0.00,,,0.00,,2013-01-14 01:03:00,
2013-01-13 19:12:00,11.0,2.0,30.36,WNW,287,0.0,0.0,67,0.00,,,0.00,,2013-01-14 01:12:00,
2013-01-13 19:22:00,10.0,2.0,30.37,WNW,287,0.0,0.0,69,0.00,,,0.00,,2013-01-14 01:22:00,
2013-01-13 19:32:00,9.0,2.0,30.37,WNW,287,0.0,0.0,71,0.00,,,0.00,,2013-01-14 01:32:00,
2013-01-13 19:42:00,9.0,2.0,30.37,WNW,287,0.0,0.0,71,0.00,,,0.00,,2013-01-14 01:42:00,
2013-01-13 19:52:00,8.0,1.0,30.38,WNW,287,0.0,0.0,73,0.00,,,0.00,,2013-01-14 01:52:00,
2013-01-13 20:02:00,7.0,0.0,30.38,WNW,287,0.0,0.0,74,0.00,,,0.00,,2013-01-14 02:02:00,
2013-01-13 20:12:00,7.0,0.0,30.38,WNW,287,0.0,0.0,74,0.00,,,0.00,,2013-01-14 02:12:00,
2013-01-13 20:22:00,6.0,0.0,30.38,WNW,287,0.0,0.0,76,0.00,,,0.00,,2013-01-14 02:22:00,
2013-01-13 20:32:00,6.0,1.0,30.39,WNW,287,0.0,0.0,78,0.00,,,0.00,,2013-01-14 02:32:00,
2013-01-13 20:42:00,6.0,1.0,30.39,WNW,287,0.0,0.0,78,0.00,,,0.00,,2013-01-14 02:42:00,
2013-01-13 20:53:00,6.0,1.0,30.39,WNW,287,0.0,0.0,78,0.00,,,0.00,,2013-01-14 02:53:00,
2013-01-13 21:02:00,5.0,-1.0,30.39,WNW,287,0.0,0.0,77,0.00,,,0.00,,2013-01-14 03:02:00,
2013-01-13 21:12:00,5.0,-1.0,30.39,WNW,287,0.0,0.0,77,0.00,,,0.00,,2013-01-14 03:12:00,
2013-01-13 21:22:00,5.0,0.0,30.39,WNW,287,0.0,0.0,78,0.00,,,0.00,,2013-01-14 03:22:00,
2013-01-13 21:32:00,4.0,-1.0,30.40,WNW,287,0.0,0.0,78,0.00,,,0.00,,2013-01-14 03:32:00,
2013-01-13 21:42:00,4.0,-1.0,30.40,WNW,287,0.0,0.0,78,0.00,,,0.00,,2013-01-14 03:42:00,
2013-01-13 21:52:00,4.0,-1.0,30.40,WNW,287,0.0,0.0,78,0.00,,,0.00,,2013-01-14 03:52:00,
2013-01-13 22:02:00,3.0,-2.0,30.40,WNW,287,0.0,0.0,79,0.00,,,0.00,,2013-01-14 04:02:00,
2013-01-13 22:12:00,3.0,-2.0,30.40,WNW,287,0.0,0.0,79,0.00,,,0.00,,2013-01-14 04:12:00,
2013-01-13 22:22:00,3.0,-2.0,30.40,WNW,287,0.0,0.0,79,0.00,,,0.00,,2013-01-14 04:22:00,
2013-01-13 22:32:00,2.0,-3.0,30.41,WNW,287,0.0,0.0,79,0.00,,,0.00,,2013-01-14 04:32:00,
2013-01-13 22:41:00,2.0,-3.0,30.42,WNW,287,0.0,0.0,80,0.00,,,0.00,,2013-01-14 04:41:00,
2013-01-13 22:42:00,2.0,-3.0,30.41,WNW,287,0.0,0.0,79,0.00,,,0.00,,2013-01-14 04:42:00,
2013-01-13 22:52:00,2.0,-3.0,30.41,WNW,287,0.0,0.0,80,0.00,,,0.00,,2013-01-14 04:52:00,
2013-01-13 23:04:00,2.0,-3.0,30.42,WNW,287,0.0,0.0,80,0.00,,,0.00,,2013-01-14 05:04:00,
2013-01-13 23:12:00,2.0,-3.0,30.42,WNW,287,0.0,0.0,80,0.00,,,0.00,,2013-01-14 05:12:00,
2013-01-13 23:22:00,2.0,-3.0,30.42,WNW,287,0.0,0.0,80,0.00,,,0.00,,2013-01-14 05:22:00,
2013-01-13 23:32:00,2.0,-3.0,30.42,WNW,287,0.0,0.0,80,0.00,,,0.00,,2013-01-14 05:32:00,
2013-01-13 23:53:00,1.0,-3.0,30.41,WNW,287,0.0,0.0,81,0.00,,,0.00,,2013-01-14 05:53:00,